Weather in Arabosi

Russia / Chuvash Republic     55°38′45″N   47°54′24″E
temp.,
°C
wind,
m/s
gust,
m/s
humid.,
%
clouds,
%
prec.,
mm/h
press.,
hPa
HPBL,
m
11 april, sun
sun1100:00+1n25100100 0.1 1026136
03:00+1nnw25100100 0.1 1027134
06:00+1nnw48100100 0.3 1027191
09:00+1nnw37100100 2.3 1029196
12:00+3nnw36100100 0.0 1030244
15:00+5nne13100100 0.0 1032225
18:00+2ne1199100 0.0 103235
21:00+1ne3598100 0.0 103398
12 april, mon
mon1200:00+1ne2498100 0.1 103580
03:00+1ene2589100 0.2 1036103
06:00+1ne3886100 0.3 1037170
09:00+4ene41085100 0.3 1038294
12:00+6ene5979100 0.0 1037404
15:00+7e4880100 0.0 1037345
18:00+6e51185100 0.0 1037311
21:00+4e3118985 0.0 1037236
13 april, tue
tue1300:00+4ese3891100 0.0 1037147
03:00+4ese3694100 0.0 103693
06:00+5se3595100 0.0 1035101
09:00+10sse4784100 0.0 1035244
12:00+15sse467083 0.0 1034545
15:00+17s565784 0.0 1032939
18:00+13s377184 0.0 1031141
21:00+10s377549 0.0 103293
14 april, wed
wed1400:00+8s357561 0.0 103156
03:00+7s33715 0.0 103124
06:00+7s227029 0.0 103034
09:00+12s455388 0.0 1030305
12:00+16s453862 0.0 1028786
15:00+17s563131 0.0 1027965
18:00+13s35505 0.0 102576
21:00+10s336465 0.0 102530
15 april, thu
thu1500:00+8s227333 0.0 102415
03:00+7s22789 0.0 102311
06:00+8s22785 0.0 102320
09:00+13s34605 0.0 1022358
12:00+17s34475 0.0 10201140
15:00+18ssw34430 0.0 10181508
18:00+15s33575 0.0 101739
21:00+11sw22720 0.0 101717